Time,TemperatureF,DewpointF,PressureIn,WindDirection,WindDirectionDegrees,WindSpeedMPH,WindSpeedGustMPH,Humidity,HourlyPrecipIn,Conditions,Clouds,dailyrainin,SoftwareType,DateUTC
2013-08-04 00:12:00,52.0,49.0,30.05,NNE,24,0.0,0.0,88,0.00,,,-99.99,,2013-08-04 06:12:00,
2013-08-04 00:22:00,52.0,49.0,30.05,NNE,24,0.0,0.0,88,0.00,,,-99.99,,2013-08-04 06:22:00,
2013-08-04 00:32:00,52.0,49.0,30.05,NNE,24,0.0,0.0,88,0.00,,,-99.99,,2013-08-04 06:32:00,
2013-08-04 00:52:00,50.0,47.0,30.05,NNE,24,0.0,0.0,90,0.00,,,-99.99,,2013-08-04 06:52:00,
2013-08-04 01:02:00,50.0,47.0,30.05,NNE,24,0.0,0.0,90,0.00,,,-99.99,,2013-08-04 07:02:00,
2013-08-04 01:12:00,50.0,47.0,30.05,NNE,24,0.0,0.0,90,0.00,,,-99.99,,2013-08-04 07:12:00,
2013-08-04 01:22:00,50.0,47.0,30.05,NNE,24,0.0,0.0,90,0.00,,,-99.99,,2013-08-04 07:22:00,
2013-08-04 01:32:00,50.0,47.0,30.05,NNE,24,0.0,0.0,90,0.00,,,-99.99,,2013-08-04 07:32:00,
2013-08-04 01:43:00,50.0,47.0,30.05,NNE,24,0.0,0.0,90,0.00,,,-99.99,,2013-08-04 07:43:00,
2013-08-04 01:53:00,49.0,46.0,30.06,NNE,24,0.0,0.0,91,0.00,,,-99.99,,2013-08-04 07:53:00,
2013-08-04 02:02:00,49.0,46.0,30.06,NNE,24,0.0,0.0,91,0.00,,,-99.99,,2013-08-04 08:02:00,
2013-08-04 02:11:00,49.0,46.0,30.06,NNE,24,0.0,0.0,91,0.00,,,-99.99,,2013-08-04 08:11:00,
2013-08-04 02:22:00,49.0,47.0,30.06,NNE,24,0.0,0.0,92,0.00,,,-99.99,,2013-08-04 08:22:00,
2013-08-04 02:32:00,49.0,47.0,30.06,NNE,24,0.0,0.0,92,0.00,,,-99.99,,2013-08-04 08:32:00,
2013-08-04 02:43:00,49.0,47.0,30.06,NNE,24,0.0,0.0,92,0.00,,,-99.99,,2013-08-04 08:43:00,
2013-08-04 02:53:00,49.0,47.0,30.03,NNE,24,0.0,1.0,92,0.00,,,-99.99,,2013-08-04 08:53:00,
2013-08-04 03:02:00,49.0,47.0,30.03,NNE,24,0.0,1.0,92,0.00,,,-99.99,,2013-08-04 09:02:00,
2013-08-04 03:12:00,49.0,47.0,30.03,NNE,24,0.0,1.0,92,0.00,,,-99.99,,2013-08-04 09:12:00,
2013-08-04 03:22:00,49.0,47.0,30.03,NNE,24,0.0,0.0,92,0.00,,,-99.99,,2013-08-04 09:22:00,
2013-08-04 03:32:00,49.0,47.0,30.03,NNE,24,0.0,0.0,92,0.00,,,-99.99,,2013-08-04 09:32:00,
2013-08-04 03:43:00,49.0,47.0,30.03,NNE,24,0.0,0.0,92,0.00,,,-99.99,,2013-08-04 09:43:00,
2013-08-04 03:52:00,48.0,46.0,30.03,NNE,24,0.0,0.0,92,0.00,,,-99.99,,2013-08-04 09:52:00,
2013-08-04 04:01:00,48.0,46.0,30.03,NNE,24,0.0,0.0,92,0.00,,,-99.99,,2013-08-04 10:01:00,
2013-08-04 04:12:00,48.0,46.0,30.03,NNE,24,0.0,0.0,92,0.00,,,-99.99,,2013-08-04 10:12:00,
2013-08-04 04:22:00,48.0,46.0,30.03,NNE,24,0.0,0.0,92,0.00,,,-99.99,,2013-08-04 10:22:00,
2013-08-04 04:32:00,48.0,46.0,30.03,NNE,24,0.0,0.0,92,0.00,,,-99.99,,2013-08-04 10:32:00,
2013-08-04 04:43:00,48.0,46.0,30.03,NNE,24,0.0,0.0,92,0.00,,,-99.99,,2013-08-04 10:43:00,
2013-08-04 04:53:00,48.0,46.0,30.05,NNE,24,0.0,0.0,93,0.00,,,-99.99,,2013-08-04 10:53:00,
2013-08-04 05:01:00,48.0,46.0,30.05,NNE,24,0.0,0.0,93,0.00,,,-99.99,,2013-08-04 11:01:00,
2013-08-04 05:12:00,48.0,46.0,30.05,NNE,24,0.0,0.0,93,0.00,,,-99.99,,2013-08-04 11:12:00,
2013-08-04 05:22:00,47.0,45.0,30.05,NNE,24,0.0,0.0,93,0.00,,,-99.99,,2013-08-04 11:22:00,
2013-08-04 05:32:00,47.0,45.0,30.05,NNE,24,0.0,0.0,93,0.00,,,-99.99,,2013-08-04 11:32:00,
2013-08-04 05:42:00,47.0,45.0,30.05,NNE,24,0.0,0.0,93,0.00,,,-99.99,,2013-08-04 11:42:00,
2013-08-04 05:53:00,48.0,46.0,30.05,NNE,24,0.0,0.0,93,0.00,,,-99.99,,2013-08-04 11:53:00,
2013-08-04 06:01:00,48.0,46.0,30.05,NNE,24,0.0,0.0,93,0.00,,,-99.99,,2013-08-04 12:01:00,
2013-08-04 06:12:00,48.0,46.0,30.05,NNE,24,0.0,0.0,93,0.00,,,-99.99,,2013-08-04 12:12:00,
2013-08-04 06:22:00,47.0,45.0,30.03,NNE,24,0.0,1.0,93,0.00,,,-99.99,,2013-08-04 12:22:00,
2013-08-04 06:32:00,47.0,45.0,30.03,NNE,24,0.0,1.0,93,0.00,,,-99.99,,2013-08-04 12:32:00,
2013-08-04 06:43:00,47.0,45.0,30.03,NNE,24,0.0,1.0,93,0.00,,,-99.99,,2013-08-04 12:43:00,
2013-08-04 06:53:00,47.0,45.0,30.04,NNE,24,0.0,0.0,94,0.00,,,-99.99,,2013-08-04 12:53:00,
2013-08-04 07:01:00,47.0,45.0,30.04,NNE,24,0.0,0.0,94,0.00,,,-99.99,,2013-08-04 13:01:00,
2013-08-04 07:12:00,47.0,45.0,30.04,NNE,24,0.0,0.0,94,0.00,,,-99.99,,2013-08-04 13:12:00,
2013-08-04 07:22:00,47.0,45.0,30.04,NNE,24,0.0,0.0,94,0.00,,,-99.99,,2013-08-04 13:22:00,
2013-08-04 07:32:00,47.0,45.0,30.04,NNE,24,0.0,0.0,94,0.00,,,-99.99,,2013-08-04 13:32:00,
2013-08-04 07:43:00,47.0,45.0,30.04,NNE,24,0.0,0.0,94,0.00,,,-99.99,,2013-08-04 13:43:00,
2013-08-04 07:52:00,48.0,46.0,30.05,NNE,24,0.0,0.0,94,0.00,,,-99.99,,2013-08-04 13:52:00,
2013-08-04 08:02:00,48.0,46.0,30.05,NNE,24,0.0,0.0,94,0.00,,,-99.99,,2013-08-04 14:02:00,
2013-08-04 08:12:00,48.0,46.0,30.05,NNE,24,0.0,0.0,94,0.00,,,-99.99,,2013-08-04 14:12:00,
2013-08-04 08:22:00,50.0,48.0,30.05,NNE,24,0.0,0.0,94,0.01,,,-99.99,,2013-08-04 14:22:00,
2013-08-04 08:32:00,50.0,48.0,30.05,NNE,24,0.0,0.0,94,0.01,,,-99.99,,2013-08-04 14:32:00,
2013-08-04 08:43:00,50.0,48.0,30.05,NNE,24,0.0,0.0,94,0.01,,,-99.99,,2013-08-04 14:43:00,
2013-08-04 08:53:00,53.0,52.0,30.07,ENE,76,0.0,0.0,95,0.01,,,-99.99,,2013-08-04 14:53:00,
2013-08-04 09:01:00,53.0,52.0,30.07,ENE,76,0.0,0.0,95,0.01,,,-99.99,,2013-08-04 15:01:00,
2013-08-04 09:12:00,53.0,52.0,30.07,ENE,76,0.0,0.0,95,0.01,,,-99.99,,2013-08-04 15:12:00,
2013-08-04 09:22:00,60.0,52.0,30.06,ENE,76,0.0,0.0,75,0.00,,,-99.99,,2013-08-04 15:22:00,
2013-08-04 09:32:00,60.0,52.0,30.06,ENE,76,0.0,0.0,75,0.00,,,-99.99,,2013-08-04 15:32:00,
2013-08-04 09:43:00,60.0,52.0,30.06,ENE,76,0.0,0.0,75,0.00,,,-99.99,,2013-08-04 15:43:00,
2013-08-04 09:53:00,63.0,52.0,30.06,ENE,75,1.0,2.0,67,0.00,,,0.00,,2013-08-04 15:53:00,
2013-08-04 10:01:00,63.0,52.0,30.06,ENE,75,1.0,2.0,67,0.00,,,0.00,,2013-08-04 16:01:00,
2013-08-04 10:12:00,63.0,52.0,30.06,ENE,75,1.0,2.0,67,0.00,,,0.00,,2013-08-04 16:12:00,
2013-08-04 10:32:00,64.0,52.0,30.06,NNW,333,3.0,4.0,65,0.00,,,0.00,,2013-08-04 16:32:00,
2013-08-04 10:42:00,64.0,52.0,30.06,NNW,333,3.0,4.0,65,0.00,,,0.00,,2013-08-04 16:42:00,
2013-08-04 10:53:00,67.0,51.0,30.06,North,349,1.0,4.0,57,0.00,,,0.00,,2013-08-04 16:53:00,
2013-08-04 11:01:00,67.0,51.0,30.06,North,349,1.0,4.0,57,0.00,,,0.00,,2013-08-04 17:01:00,
2013-08-04 11:12:00,67.0,51.0,30.06,North,349,1.0,4.0,57,0.00,,,0.00,,2013-08-04 17:12:00,
2013-08-04 11:21:00,69.0,51.0,30.05,SE,132,1.0,3.0,53,0.00,,,0.00,,2013-08-04 17:21:00,
2013-08-04 11:32:00,69.0,51.0,30.05,SE,132,1.0,3.0,53,0.00,,,0.00,,2013-08-04 17:32:00,
2013-08-04 11:43:00,69.0,51.0,30.05,SE,132,1.0,3.0,53,0.00,,,0.00,,2013-08-04 17:43:00,
2013-08-04 11:53:00,70.0,55.0,30.05,ENE,77,0.0,3.0,58,0.00,,,0.00,,2013-08-04 17:53:00,
2013-08-04 12:01:00,70.0,55.0,30.05,ENE,77,0.0,3.0,58,0.00,,,0.00,,2013-08-04 18:01:00,
2013-08-04 12:12:00,70.0,55.0,30.05,ENE,77,0.0,3.0,58,0.00,,,0.00,,2013-08-04 18:12:00,
2013-08-04 12:22:00,69.0,53.0,30.06,ESE,116,0.0,3.0,57,0.00,,,0.00,,2013-08-04 18:22:00,
2013-08-04 12:32:00,69.0,53.0,30.06,ESE,116,0.0,3.0,57,0.00,,,0.00,,2013-08-04 18:32:00,
2013-08-04 12:43:00,69.0,53.0,30.06,ESE,116,0.0,3.0,57,0.00,,,0.00,,2013-08-04 18:43:00,
2013-08-04 12:52:00,72.0,53.0,30.04,East,91,1.0,4.0,51,0.00,,,0.00,,2013-08-04 18:52:00,
2013-08-04 13:01:00,72.0,53.0,30.04,East,91,1.0,4.0,51,0.00,,,0.00,,2013-08-04 19:01:00,
2013-08-04 13:12:00,72.0,53.0,30.04,East,91,1.0,4.0,51,0.00,,,0.00,,2013-08-04 19:12:00,
2013-08-04 13:22:00,70.0,54.0,30.05,SW,236,0.0,2.0,57,0.00,,,0.00,,2013-08-04 19:22:00,
2013-08-04 13:32:00,70.0,54.0,30.05,SW,236,0.0,2.0,57,0.00,,,0.00,,2013-08-04 19:32:00,
2013-08-04 13:44:00,70.0,54.0,30.05,SW,236,0.0,2.0,57,0.00,,,0.00,,2013-08-04 19:44:00,
2013-08-04 13:53:00,70.0,55.0,30.05,WNW,290,0.0,4.0,59,0.00,,,0.00,,2013-08-04 19:53:00,
2013-08-04 14:01:00,70.0,55.0,30.05,WNW,290,0.0,4.0,59,0.00,,,0.00,,2013-08-04 20:01:00,
2013-08-04 14:12:00,70.0,55.0,30.05,WNW,290,0.0,4.0,59,0.00,,,0.00,,2013-08-04 20:12:00,
2013-08-04 14:22:00,71.0,51.0,30.04,North,355,3.0,4.0,50,0.00,,,0.00,,2013-08-04 20:22:00,
2013-08-04 14:32:00,71.0,51.0,30.04,North,355,3.0,4.0,50,0.00,,,0.00,,2013-08-04 20:32:00,
2013-08-04 14:42:00,71.0,51.0,30.04,North,355,3.0,4.0,50,0.00,,,0.00,,2013-08-04 20:42:00,
2013-08-04 14:53:00,74.0,50.0,30.03,ESE,111,1.0,5.0,43,0.00,,,0.00,,2013-08-04 20:53:00,
2013-08-04 15:01:00,74.0,50.0,30.03,ESE,111,1.0,5.0,43,0.00,,,0.00,,2013-08-04 21:01:00,
2013-08-04 15:12:00,74.0,50.0,30.03,ESE,111,1.0,5.0,43,0.00,,,0.00,,2013-08-04 21:12:00,
2013-08-04 15:22:00,76.0,52.0,30.01,NNE,20,2.0,4.0,43,0.00,,,0.00,,2013-08-04 21:22:00,
2013-08-04 15:32:00,76.0,52.0,30.01,NNE,20,2.0,4.0,43,0.00,,,0.00,,2013-08-04 21:32:00,
2013-08-04 15:43:00,76.0,52.0,30.01,NNE,20,2.0,4.0,43,0.00,,,0.00,,2013-08-04 21:43:00,
2013-08-04 15:53:00,74.0,49.0,30.02,North,5,0.0,3.0,41,0.00,,,0.00,,2013-08-04 21:53:00,
2013-08-04 16:01:00,74.0,49.0,30.02,North,5,0.0,3.0,41,0.00,,,0.00,,2013-08-04 22:01:00,
2013-08-04 16:12:00,74.0,49.0,30.02,North,5,0.0,3.0,41,0.00,,,0.00,,2013-08-04 22:12:00,
2013-08-04 16:32:00,75.0,50.0,30.01,ENE,67,1.0,3.0,42,0.00,,,0.00,,2013-08-04 22:32:00,
2013-08-04 16:43:00,75.0,50.0,30.01,ENE,67,1.0,3.0,42,0.00,,,0.00,,2013-08-04 22:43:00,
2013-08-04 16:53:00,74.0,49.0,30.01,East,81,0.0,5.0,41,0.00,,,0.00,,2013-08-04 22:53:00,
2013-08-04 17:01:00,74.0,49.0,30.01,East,81,0.0,5.0,41,0.00,,,0.00,,2013-08-04 23:01:00,
2013-08-04 17:11:00,74.0,49.0,30.01,East,81,0.0,5.0,41,0.00,,,0.00,,2013-08-04 23:11:00,
2013-08-04 17:22:00,75.0,46.0,29.99,ENE,72,1.0,4.0,36,0.00,,,0.00,,2013-08-04 23:22:00,
2013-08-04 17:32:00,75.0,46.0,29.99,ENE,72,1.0,4.0,36,0.00,,,0.00,,2013-08-04 23:32:00,
2013-08-04 17:43:00,75.0,46.0,29.99,ENE,72,1.0,4.0,36,0.00,,,0.00,,2013-08-04 23:43:00,
2013-08-04 17:53:00,75.0,47.0,29.98,ESE,111,1.0,3.0,37,0.00,,,0.00,,2013-08-04 23:53:00,
2013-08-04 18:01:00,75.0,47.0,29.98,ESE,111,1.0,3.0,37,0.00,,,0.00,,2013-08-05 00:01:00,
2013-08-04 18:12:00,75.0,47.0,29.98,ESE,111,1.0,3.0,37,0.00,,,0.00,,2013-08-05 00:12:00,
2013-08-04 18:21:00,75.0,50.0,29.97,WNW,286,3.0,5.0,41,0.00,,,0.00,,2013-08-05 00:21:00,
2013-08-04 18:32:00,75.0,50.0,29.97,WNW,286,3.0,5.0,41,0.00,,,0.00,,2013-08-05 00:32:00,
2013-08-04 18:42:00,75.0,50.0,29.97,WNW,286,3.0,5.0,41,0.00,,,0.00,,2013-08-05 00:42:00,
2013-08-04 18:52:00,75.0,48.0,29.97,North,355,0.0,4.0,38,0.00,,,0.00,,2013-08-05 00:52:00,
2013-08-04 19:02:00,75.0,48.0,29.97,North,355,0.0,4.0,38,0.00,,,0.00,,2013-08-05 01:02:00,
2013-08-04 19:12:00,75.0,48.0,29.97,North,355,0.0,4.0,38,0.00,,,0.00,,2013-08-05 01:12:00,
2013-08-04 19:22:00,73.0,47.0,29.98,NNW,330,0.0,1.0,39,0.00,,,0.00,,2013-08-05 01:22:00,
2013-08-04 19:32:00,73.0,47.0,29.98,NNW,330,0.0,1.0,39,0.00,,,0.00,,2013-08-05 01:32:00,
2013-08-04 19:43:00,73.0,47.0,29.98,NNW,330,0.0,1.0,39,0.00,,,0.00,,2013-08-05 01:43:00,
2013-08-04 19:52:00,73.0,48.0,29.97,NNW,331,0.0,1.0,41,0.00,,,0.00,,2013-08-05 01:52:00,
2013-08-04 20:01:00,73.0,48.0,29.97,NNW,331,0.0,1.0,41,0.00,,,0.00,,2013-08-05 02:01:00,
2013-08-04 20:12:00,73.0,48.0,29.97,NNW,331,0.0,1.0,41,0.00,,,0.00,,2013-08-05 02:12:00,
2013-08-04 20:22:00,70.0,49.0,29.98,NNW,331,0.0,0.0,48,0.00,,,0.00,,2013-08-05 02:22:00,
2013-08-04 20:32:00,70.0,49.0,29.98,NNW,331,0.0,0.0,48,0.00,,,0.00,,2013-08-05 02:32:00,
2013-08-04 20:43:00,70.0,49.0,29.98,NNW,331,0.0,0.0,48,0.00,,,0.00,,2013-08-05 02:43:00,
2013-08-04 20:53:00,69.0,52.0,29.99,NNW,328,0.0,2.0,54,0.00,,,0.00,,2013-08-05 02:53:00,
2013-08-04 21:02:00,69.0,52.0,29.99,NNW,328,0.0,2.0,54,0.00,,,0.00,,2013-08-05 03:02:00,
2013-08-04 21:12:00,69.0,52.0,29.99,NNW,328,0.0,2.0,54,0.00,,,0.00,,2013-08-05 03:12:00,
2013-08-04 21:22:00,67.0,53.0,29.99,NNW,329,0.0,1.0,61,0.00,,,0.00,,2013-08-05 03:22:00,
2013-08-04 21:32:00,67.0,53.0,29.99,NNW,329,0.0,1.0,61,0.00,,,0.00,,2013-08-05 03:32:00,
2013-08-04 21:42:00,67.0,53.0,29.99,NNW,329,0.0,1.0,61,0.00,,,0.00,,2013-08-05 03:42:00,
2013-08-04 21:53:00,63.0,53.0,30.00,NNW,329,0.0,0.0,70,0.00,,,0.00,,2013-08-05 03:53:00,
2013-08-04 22:01:00,63.0,53.0,30.00,NNW,329,0.0,0.0,70,0.00,,,0.00,,2013-08-05 04:01:00,
2013-08-04 22:12:00,63.0,53.0,30.00,NNW,329,0.0,0.0,70,0.00,,,0.00,,2013-08-05 04:12:00,
2013-08-04 22:32:00,62.0,53.0,30.01,NNW,344,0.0,0.0,72,0.00,,,0.00,,2013-08-05 04:32:00,
2013-08-04 22:43:00,62.0,53.0,30.01,NNW,344,0.0,0.0,72,0.00,,,0.00,,2013-08-05 04:43:00,
2013-08-04 22:52:00,62.0,53.0,30.01,NNW,344,0.0,0.0,72,0.00,,,0.00,,2013-08-05 04:52:00,
2013-08-04 23:01:00,62.0,53.0,30.01,NNW,344,0.0,0.0,72,0.00,,,0.00,,2013-08-05 05:01:00,
2013-08-04 23:22:00,59.0,51.0,30.02,NNW,344,0.0,0.0,76,0.00,,,0.00,,2013-08-05 05:22:00,
2013-08-04 23:32:00,59.0,51.0,30.02,NNW,344,0.0,0.0,76,0.00,,,0.00,,2013-08-05 05:32:00,
2013-08-04 23:43:00,59.0,51.0,30.02,NNW,344,0.0,0.0,76,0.00,,,0.00,,2013-08-05 05:43:00,
2013-08-04 23:53:00,57.0,51.0,30.03,NNW,344,0.0,0.0,79,0.00,,,0.00,,2013-08-05 05:53:00,